Weather History for Fergus Falls, MN

Change the Weather History Date:

Monday, October 17, 2011

  Actual Average Record
Temperature  
Mean Temperature 44 °F -  
Max Temperature 55 °F 55 °F 76 °F (1953)
Min Temperature 33 °F 33 °F 5 °F (1998)
Degree Days  
Heating Degree Days 21    
Moisture  
Dew Point 31 °F    
Average Humidity 63    
Maximum Humidity 87    
Minimum Humidity 33    
Precipitation  
Precipitation 0.00 in - - ()
Sea Level Pressure  
Sea Level Pressure 29.90 in    
Wind  
Wind Speed 14 mph (NW)    
Max Wind Speed 26 mph    
Max Gust Speed 36 mph    
Visibility 10 miles    
Events      
Averages and records for this station are not official NWS values.
T = Trace of Precipitation, MM = Missing Value Source: NWS Daily Summary

Daily Weather History Graph

Daily Weather History Graph

Search for Another Location

Airport:

Trip Planner

Search our weather history database for the weather conditions in past years. The results will help you decide how hot, cold, wet, or windy it might be!

Date:

Astronomy

Oct. 17, 2011 Rise Set
Actual Time 7:44 AM CDT 6:34 PM CDT
Civil Twilight 7:13 AM CDT 7:05 PM CDT
Nautical Twilight 6:38 AM CDT 7:40 PM CDT
Astronomical Twilight 6:04 AM CDT 8:14 PM CDT
Moon 10:02 PM CDT (10/17) 1:05 PM CDT (10/17)
Length of Visible Light 11h 51m
Length of Day
10h 50m
Waning Gibbous, 74% of the Moon is Illuminated
Oct 17
Waning Gibbous
Oct 19
Last Quarter
Oct 26
New
Nov 2
First Quarter
Nov 10
Full

Hourly Weather History & Observations

Time (CDT) Temp. Windchill Dew Point Humidity Pressure Visibility Wind Dir Wind Speed Gust Speed Precip Events Conditions
12:13 AM 39.2 °F 31.2 °F 33.8 °F 81% 29.91 in 10.0 mi WNW 13.8 mph - N/A   Clear
12:33 AM 39.2 °F 31.2 °F 33.8 °F 81% 29.91 in 10.0 mi WNW 13.8 mph - N/A   Clear
12:53 AM 39.2 °F 31.6 °F 32.0 °F 75% 29.91 in 10.0 mi WNW 12.7 mph - N/A   Clear
1:13 AM 39.2 °F 31.2 °F 33.8 °F 81% 29.90 in 10.0 mi WNW 13.8 mph - N/A   Clear
1:33 AM 39.2 °F 31.6 °F 33.8 °F 81% 29.91 in 10.0 mi WNW 12.7 mph - N/A   Clear
1:53 AM 39.2 °F 31.6 °F 33.8 °F 81% 29.90 in 10.0 mi WNW 12.7 mph - N/A   Clear
2:13 AM 37.4 °F 29.3 °F 32.0 °F 81% 29.90 in 10.0 mi WNW 12.7 mph - N/A   Clear
2:53 AM 37.4 °F 29.8 °F 32.0 °F 81% 29.90 in 10.0 mi WNW 11.5 mph - N/A   Clear
3:13 AM 37.4 °F 30.3 °F 32.0 °F 81% 29.90 in 10.0 mi WNW 10.4 mph - N/A   Clear
3:33 AM 35.6 °F 27.5 °F 32.0 °F 87% 29.90 in 10.0 mi WNW 11.5 mph - N/A   Clear
3:53 AM 35.6 °F 29.2 °F 32.0 °F 87% 29.90 in 10.0 mi WNW 8.1 mph - N/A   Clear
4:13 AM 35.6 °F 29.2 °F 30.2 °F 81% 29.90 in 10.0 mi WNW 8.1 mph - N/A   Clear
4:33 AM 33.8 °F 29.6 °F 30.2 °F 87% 29.89 in 10.0 mi WNW 4.6 mph - N/A   Clear
5:13 AM 35.6 °F 28.6 °F 32.0 °F 87% 29.89 in 10.0 mi WNW 9.2 mph - N/A   Clear
5:33 AM 33.8 °F 27.0 °F 30.2 °F 87% 29.89 in 10.0 mi WNW 8.1 mph - N/A   Clear
5:53 AM 33.8 °F 27.0 °F 30.2 °F 87% 29.89 in 10.0 mi WNW 8.1 mph - N/A   Clear
6:13 AM 35.6 °F 28.6 °F 30.2 °F 81% 29.90 in 10.0 mi West 9.2 mph - N/A   Clear
6:32 AM 33.8 °F 27.0 °F 30.2 °F 87% 29.90 in 10.0 mi WNW 8.1 mph - N/A   Clear
7:13 AM 33.8 °F 25.8 °F 30.2 °F 87% 29.90 in 10.0 mi WNW 10.4 mph - N/A   Clear
7:33 AM 35.6 °F 28.0 °F 30.2 °F 81% 29.90 in 10.0 mi West 10.4 mph - N/A   Clear
7:53 AM 33.8 °F 26.4 °F 30.2 °F 87% 29.91 in 10.0 mi West 9.2 mph - N/A   Clear
8:13 AM 33.8 °F 27.0 °F 30.2 °F 87% 29.91 in 10.0 mi West 8.1 mph - N/A   Clear
8:33 AM 33.8 °F 26.4 °F 30.2 °F 87% 29.91 in 10.0 mi WNW 9.2 mph - N/A   Clear
8:53 AM 35.6 °F 28.0 °F 32.0 °F 87% 29.92 in 10.0 mi WNW 10.4 mph - N/A   Clear
9:13 AM 37.4 °F 30.8 °F 33.8 °F 87% 29.92 in 10.0 mi WNW 9.2 mph - N/A   Clear
9:33 AM 39.2 °F 31.2 °F 33.8 °F 81% 29.92 in 10.0 mi WNW 13.8 mph - N/A   Clear
9:53 AM 41.0 °F 33.5 °F 33.8 °F 76% 29.92 in 10.0 mi WNW 13.8 mph 17.3 mph N/A   Clear
10:13 AM 42.8 °F 35.8 °F 33.8 °F 70% 29.93 in 10.0 mi WNW 13.8 mph - N/A   Clear
10:33 AM 44.6 °F 38.1 °F 33.8 °F 66% 29.93 in 10.0 mi WNW 13.8 mph - N/A   Clear
10:53 AM 46.4 °F 40.4 °F 33.8 °F 62% 29.93 in 10.0 mi NW 13.8 mph - N/A   Clear
11:13 AM 48.2 °F - 32.0 °F 54% 29.93 in 10.0 mi NW 19.6 mph 25.3 mph N/A   Clear
11:33 AM 50.0 °F - 32.0 °F 50% 29.93 in 10.0 mi NW 18.4 mph - N/A   Clear
11:53 AM 50.0 °F - 30.2 °F 47% 29.92 in 10.0 mi NW 21.9 mph 31.1 mph N/A   Clear
12:13 PM 51.8 °F - 32.0 °F 47% 29.92 in 10.0 mi NW 21.9 mph 28.8 mph N/A   Clear
12:33 PM 51.8 °F - 30.2 °F 44% 29.92 in 10.0 mi NW 24.2 mph 32.2 mph N/A   Clear
12:53 PM 53.6 °F - 30.2 °F 41% 29.91 in 10.0 mi NW 24.2 mph 32.2 mph N/A   Clear
1:12 PM 53.6 °F - 32.0 °F 44% 29.91 in 10.0 mi NW 19.6 mph 28.8 mph N/A   Clear
1:33 PM 55.4 °F - 32.0 °F 41% 29.90 in 10.0 mi NW 26.5 mph 32.2 mph N/A   Clear
1:53 PM 55.4 °F - 30.2 °F 38% 29.90 in 10.0 mi NW 25.3 mph 35.7 mph N/A   Clear
2:13 PM 55.4 °F - 30.2 °F 38% 29.89 in 10.0 mi NW 26.5 mph 33.4 mph N/A   Clear
2:33 PM 55.4 °F - 30.2 °F 38% 29.89 in 10.0 mi NNW 25.3 mph 34.5 mph N/A   Clear
2:50 PM 55.4 °F - 30.2 °F 38% 29.88 in 10.0 mi NNW 20.7 mph 31.1 mph N/A   Clear
3:13 PM 55.4 °F - 30.2 °F 38% 29.88 in 10.0 mi NW 20.7 mph 31.1 mph N/A   Clear
3:33 PM 55.4 °F - 30.2 °F 38% 29.88 in 10.0 mi NW 24.2 mph 29.9 mph N/A   Clear
3:53 PM 55.4 °F - 28.4 °F 36% 29.88 in 10.0 mi NW 21.9 mph 31.1 mph N/A   Clear
4:13 PM 55.4 °F - 28.4 °F 36% 29.89 in 10.0 mi NW 26.5 mph 29.9 mph N/A   Clear
4:32 PM 55.4 °F - 28.4 °F 36% 29.89 in 10.0 mi NW 20.7 mph - N/A   Clear
4:53 PM 55.4 °F - 26.6 °F 33% 29.89 in 1.0 mi NW 18.4 mph 28.8 mph N/A   Clear
5:13 PM 55.4 °F - 26.6 °F 33% 29.89 in 10.0 mi NW 23.0 mph 31.1 mph N/A   Clear
5:32 PM 55.4 °F - 26.6 °F 33% 29.90 in 10.0 mi NNW 23.0 mph 28.8 mph N/A   Clear
5:53 PM 53.6 °F - 26.6 °F 35% 29.90 in 10.0 mi NW 17.3 mph 25.3 mph N/A   Clear
6:13 PM 51.8 °F - 28.4 °F 41% 29.90 in 10.0 mi NW 12.7 mph - N/A   Clear
6:33 PM 50.0 °F - 26.6 °F 40% 29.91 in 10.0 mi Calm Calm 20.7 mph N/A   Clear
6:53 PM 48.2 °F - 26.6 °F 43% 29.91 in 10.0 mi NNW 15.0 mph - N/A   Clear
7:13 PM 48.2 °F - 26.6 °F 43% 29.92 in 10.0 mi NNW 11.5 mph 17.3 mph N/A   Clear
7:26 PM 46.4 °F 41.9 °F 28.4 °F 50% 29.93 in 10.0 mi NW 9.2 mph - N/A   Clear
8:12 PM 44.6 °F 38.8 °F 28.4 °F 53% 29.93 in 10.0 mi NW 11.5 mph - N/A   Clear
8:33 PM 44.6 °F 38.8 °F 30.2 °F 57% 29.93 in 10.0 mi WNW 11.5 mph - N/A   Clear
8:53 PM 42.8 °F 37.0 °F 30.2 °F 61% 29.94 in 10.0 mi NW 10.4 mph 17.3 mph N/A   Clear
9:13 PM 41.0 °F 35.2 °F 30.2 °F 65% 29.94 in 10.0 mi NW 9.2 mph - N/A   Clear
9:33 PM 39.2 °F 33.0 °F 28.4 °F 65% 29.96 in 10.0 mi North 9.2 mph - N/A   Clear
9:53 PM 39.2 °F 35.9 °F 30.2 °F 70% 29.96 in 10.0 mi North 4.6 mph - N/A   Clear
10:13 PM 37.4 °F 32.8 °F 30.2 °F 75% 29.97 in 10.0 mi North 5.8 mph - N/A   Clear
10:33 PM 41.0 °F 36.4 °F 32.0 °F 70% 29.97 in 10.0 mi North 6.9 mph - N/A   Clear
10:52 PM 39.2 °F 34.2 °F 32.0 °F 75% 29.98 in 10.0 mi North 6.9 mph - N/A   Clear
11:13 PM 37.4 °F 31.4 °F 30.2 °F 75% 29.98 in 10.0 mi NNW 8.1 mph - N/A   Clear
11:33 PM 37.4 °F 30.3 °F 32.0 °F 81% 29.98 in 10.0 mi NNW 10.4 mph - N/A   Clear
11:53 PM 37.4 °F 30.3 °F 32.0 °F 81% 29.99 in 10.0 mi NNW 10.4 mph - N/A   Clear